Simultaneous Nadir Overpasses (SNOs) Predictions

Prediction of SNOs between GOES-15 and METOP-A Satellite Orbit:

Table of predicted SNOs for the next 14.0 days since TLE Epoch: 2/20/2016
Index Date Time (GOES-15) GOES-15 Lat,Lon METOP-A Lat,Lon Distance(km) Time Diff (sec)
1 02/21/2016 06:15:59 -0.04,-135.28 0.64,-132.17 354.03 80
2 02/22/2016 18:34:52 0.05,-135.24 0.40,-136.73 169.95 80
3 02/23/2016 18:16:53 0.04,-135.23 -0.72,-131.74 397.53 80
4 02/25/2016 06:35:56 -0.05,-135.23 -0.30,-136.34 127.06 80
5 02/26/2016 06:12:37 -0.04,-135.21 0.81,-131.35 439.84 80
6 02/27/2016 18:31:29 0.04,-135.16 0.22,-135.91 85.27 80
7 02/28/2016 18:13:31 0.04,-135.14 -0.90,-130.92 481.50 80
8 03/01/2016 06:32:33 -0.04,-135.13 -0.11,-135.52 44.07 80
9 03/03/2016 18:28:07
